Regional Weather Roundup
Issued by NWS

Home | Current Version | Previous Version | Graphics & Text | Print | Product List | Glossary On
Versions: 1 2 3 4 5 6 7 8 9 10 11 12 13 14 15 16 17 18 19 20 21 22 23 24 25 26 27 28 29 30 31 32 33 34 35 36 37 38 39 40 41 42 43 44 45 46 47 48 49 50
000
ASUS43 KLSX 201407
RWRMO

WEATHER SUMMARY FOR MISSOURI
NATIONAL WEATHER SERVICE SPRINGFIELD MO
800 AM CST SAT JAN 20 2018

NOTE: "FAIR" INDICATES FEW OR NO CLOUDS BELOW 12,000 FEET WITH NO
       SIGNIFICANT WEATHER AND/OR OBSTRUCTIONS TO VISIBILITY.
       CURRENT SKY AND/OR WEATHER CONDITIONS ARE NOT AVAILABLE FOR
       CHILLICOTHE AND FARMINGTON.

MOZ001>031-035>038-043-044-053-054-201500-
...NORTHERN AND WESTERN MISSOURI...

CITY           SKY/WX    TMP DP  RH WIND       PRES   REMARKS
KANSAS CTY INT CLOUDY    46  42  86 SW10      29.88R
KANSAS C DTWN  CLOUDY    46  41  82 S3        29.89R
LEE`S SUMMIT   CLOUDY    47  44  90 SW12      29.90R
ST JOSEPH      CLOUDY    40  40 100 S5        29.88S
CHILLICOTHE      N/A     40  37  89 S5        29.91R
KIRKSVILLE     CLOUDY    40  38  93 SW10      29.91R

$$
MOZ066>068-077>081-088>096-101>105-201500-
...SOUTHWEST MISSOURI...

CITY           SKY/WX    TMP DP  RH WIND       PRES   REMARKS
SPRINGFIELD    CLOUDY    45  40  82 S12       29.96R
JOPLIN         CLOUDY    50  47  89 S12       29.94R
BRANSON        MOCLDY    52  46  82 S6        30.00R

$$
MOZ032>034-039>042-045>050-055>058-069>072-201500-
...CENTRAL MISSOURI...

CITY           SKY/WX    TMP DP  RH WIND       PRES   REMARKS
COLUMBIA       CLOUDY    39  36  89 S9        29.95R
JEFFERSON CITY CLOUDY    31  28  89 CALM      29.97R
ROLLA          CLOUDY    42  37  82 S18       29.97S
SEDALIA        CLOUDY    48  44  86 SW16      29.93R
WHITEMAN AFB   CLOUDY    43  40  88 S8        29.88R
WARRENSBURG    CLOUDY    43  39  87 S3        29.92R
OSAGE BEACH    CLOUDY    38  36  92 SE6       29.98R

$$
MOZ051-052-059>065-201500-
...EAST CENTRAL MISSOURI...

CITY           SKY/WX    TMP DP  RH WIND       PRES   REMARKS
ST LOUIS INTL  CLOUDY    35  29  78 S5        29.99S
SPIRIT OF STL  CLOUDY    41  34  76 SW10      29.98S
ST CHARLES     CLOUDY    28  25  88 E8        29.99S WCI  20

$$
MOZ072>076-082>087-097>100-106>115-201500-
...SOUTH CENTRAL AND SOUTHEAST MISSOURI...

CITY           SKY/WX    TMP DP  RH WIND       PRES   REMARKS
CAPE GIRARDEAU FAIR      32  25  75 S8        30.12S WCI  25
FARMINGTON     CLOUDY    35  24  64 S8        30.05R WCI  29
POPLAR BLUFF   MOCLDY    32  28  85 CALM      30.12R
WEST PLAINS    CLOUDY    37  27  67 S8        30.04R

$$


USA.gov is the U.S. government's official web portal to all federal, state and local government web resources and services.